Location: Fort Wayne
(41.1310°N, 85.1290°W)
Time: 16:10:48
(UTC-04:00)

Daily predictions for brighter satellites

Satellite Brightness Start Highest point End
(mag) Time Altitude Azimuth Time Altitude Azimuth Time Altitude Azimuth
Cosmos 1633 2.8 20:47:44 10° S 20:51:23 78° W 20:55:02 10° N
Lacrosse 5 3.7 20:51:19 10° NNW 20:55:05 20° NNE 20:58:51 10° ENE
FengYun 1-2 T 4.3 20:50:14 10° SSE 20:55:53 88° ENE 21:01:32 10° NNW
CZ-2D R/B 3.5 20:52:31 10° SSE 20:56:16 51° ENE 21:00:02 10° N
Cosmos 1934 Rocket 4.0 20:50:38 10° S 20:56:36 59° E 21:02:42 10° NNE
Resurs 01 Rocket 2.4 20:52:17 10° S 20:56:38 58° W 21:01:02 10° NNW
ATLAS CENTAUR R/B 3.9 20:53:54 10° WSW 20:58:24 32° NW 21:02:51 10° NNE
Hubble Space Telescope 3.1 20:57:48 10° SW 20:59:33 12° S 21:01:18 10° SSE
Cosmos 1777 Rocket 4.1 20:57:42 10° NNW 21:02:59 89° ENE 21:08:15 10° SSE
EP 1 4.4 21:06:58 10° SSW 21:09:22 42° ESE 21:11:49 10° NE
Cosmos 1346 Rocket 2.8 21:06:31 10° N 21:10:26 62° E 21:14:22 10° SSE
Cosmos 1544 Rocket 3.6 21:08:02 10° S 21:12:23 88° W 21:16:50 10° N
Cosmos 2227 Rocket 2.4 21:07:06 10° NNW 21:12:42 58° ENE 21:18:14 10° SE
Cosmos 1536 4.1 21:09:02 10° SSW 21:12:51 44° W 21:16:44 10° N
Tiangong 1 1.2 21:10:25 10° W 21:13:31 68° N 21:16:25 11° ENE
USA 186 1.6 21:11:05 10° SSE 21:14:11 63° ENE 21:17:06 10° N
OTV 4 1.1 21:11:57 10° W 21:14:46 40° S 21:16:45 17° ESE
FENGYUN 3A 3.7 21:09:26 10° SSE 21:14:47 89° ENE 21:20:10 10° NNW
NOSS 7 (D) 4.3 21:11:53 10° SSW 21:15:21 64° ESE 21:18:41 10° NE
Cosmos 2208 Rocket 4.0 21:12:28 10° SSW 21:17:45 77° ESE 21:23:09 10° NNE
Cosmos 1656 4.3 21:15:04 10° SSE 21:20:03 34° ESE 21:25:01 10° NE
NOSS 3-4 (A) 3.9 21:13:20 10° NW 21:20:24 89° NE 21:27:53 10° SSE
RESURS DK-1 4.4 21:18:09 10° NNE 21:20:26 14° NE 21:22:21 11° E
NOSS 3-4 (C) 3.9 21:13:27 10° NW 21:20:31 88° NE 21:28:00 10° SSE
Cosmos 1500 4.4 21:18:30 14° SE 21:20:33 22° E 21:23:30 10° NE
Meteor 1-5 Rocket 4.1 21:16:06 10° S 21:21:24 88° W 21:26:54 10° N
BREEZE-M TANK 4.0 21:05:16 10° WNW 21:21:24 70° N 21:24:54 14° E
Cosmos 2082 3.7 21:20:32 10° NNW 21:26:10 69° ENE 21:31:16 13° SSE
Cosmos 2297 Rocket 2.4 21:22:47 10° NNW 21:28:22 55° ENE 21:32:48 16° SE
CZ-4 DEB 3.2 21:26:40 19° SE 21:28:29 40° ENE 21:31:28 10° N
Cosmos 1570 Rocket 4.4 21:29:40 10° SSW 21:34:56 70° WNW 21:40:14 10° NNE
Envisat 3.5 21:34:13 18° SE 21:37:39 43° ENE 21:42:25 10° N
Cosmos 1937 Rocket 4.5 21:36:39 10° N 21:41:18 31° ENE 21:43:40 22° ESE
Cosmos 1605 Rocket 4.1 21:35:12 10° S 21:41:34 87° W 21:47:53 10° N
SJ-11-01 4.3 21:38:17 15° SSE 21:42:10 67° ENE 21:46:50 10° N
Cosmos 1515 3.9 21:39:21 10° N 21:43:07 49° E 21:44:57 26° SE
OAO 2 Rocket 4.0 21:41:52 10° SW 21:46:29 37° S 21:48:32 26° SE
Cosmos 2100 Rocket 4.3 21:42:32 10° SSE 21:48:29 46° E 21:54:23 10° NNE
Cosmos 2061 Rocket 4.4 21:44:13 14° SSE 21:49:19 42° E 21:55:09 10° NNE
YAOGAN 6 4.2 21:49:35 20° ENE 21:49:39 20° ENE 21:52:26 10° NNE
Cosmos 2150 Rocket 4.3 21:46:57 10° N 21:51:58 49° ENE 21:54:22 28° SE
Iridium 4 Rocket 3.3 21:47:27 10° N 21:52:38 83° E 21:56:49 13° S
Cosmos 1743 3.6 21:53:16 30° E 21:53:16 30° E 21:56:40 10° NNE
YAOGAN 11 4.1 21:50:15 16° SSE 21:53:50 89° WSW 21:58:20 10° NNW
Cosmos 1825 Rocket 4.4 21:50:37 10° NNE 21:54:35 31° ENE 21:55:22 29° E
Cosmos 1975 3.0 21:53:35 10° SSW 21:57:41 76° W 22:01:48 10° N
DELTA 2 R/B (1) 3.6 21:52:12 10° W 21:57:43 68° S 22:00:25 31° ESE
Cosmos 1066 Rocket 4.2 21:54:22 10° N 22:00:00 65° E 22:03:26 25° SSE
Cosmos 1697 Rocket 2.6 22:01:16 10° S 22:06:49 62° ESE 22:12:24 10° NNE
H-2A R/B 2.0 22:06:31 44° SE 22:07:31 58° ENE 22:11:35 10° N
Lacrosse 5 rocket 1.1 22:05:02 10° NW 22:08:43 69° SW 22:09:24 52° SSE
ERS-1 Rocket 3.2 22:07:44 19° S 22:11:24 70° WSW 22:16:26 10° NNW
Cosmos 1626 Rocket 4.3 22:07:55 10° NNW 22:12:11 51° W 22:15:36 15° SSW
deb Chang Zheng 4 3.5 22:11:58 10° NNE 22:16:26 71° ESE 22:18:17 34° S
Cosmos 1898 Rocket 3.4 22:11:39 10° NNW 22:16:59 87° ENE 22:19:07 37° SSE
Cosmos 1461 4.3 22:16:01 10° NW 22:19:33 29° WSW 22:21:13 21° SSW
Nimbus 7 Rocket 4.3 22:16:26 10° NNE 22:22:32 76° ESE 22:27:55 13° S
Cosmos 1758 Rocket 4.2 22:18:36 10° N 22:22:20 37° ENE 22:22:20 37° ENE
Cosmos 1725 Rocket 4.5 22:22:45 36° ESE 22:23:28 38° E 22:29:07 10° NNE
Cosmos 1763 Rocket 3.8 22:24:18 42° E 22:24:18 42° E 22:28:39 10° NNE
Cosmos 1459 Rocket 3.8 22:21:24 17° S 22:26:13 85° E 22:32:20 10° N
Cosmos 1980 Rocket 2.2 22:26:51 36° SSE 22:28:56 57° ESE 22:34:30 10° NNE
Cosmos 1939 Rocket 3.8 22:27:37 28° SSW 22:29:24 47° W 22:33:26 10° NNW
ARGOS 3.4 22:30:51 44° E 22:31:34 47° ENE 22:36:42 10° N
BREEZE-M DEB (TANK) 4.4 22:29:16 10° NW 22:33:21 64° NNE 22:38:48 29° ESE
Cosmos 468 Rocket 4.2 22:31:08 10° SSW 22:36:13 68° WNW 22:41:21 10° NNE
Lacrosse 5 1.8 22:33:46 10° NW 22:38:50 73° NE 22:39:26 64° E
Cosmos 2084 3.6 22:38:21 10° NW 22:42:21 62° WSW 22:42:21 62° WSW
SPOT 5 3.0 22:41:21 49° S 22:42:40 74° WSW 22:47:34 10° NNW
Cosmos 2058 Rocket 3.8 22:44:37 42° NE 22:44:37 42° NE 22:47:53 10° NNE
Cosmos 1814 Rocket 4.3 22:39:06 10° SSW 22:44:25 69° WNW 22:49:44 10° NNE
Cosmos 841 Rocket 3.6 22:45:03 56° ENE 22:45:03 56° ENE 22:49:38 10° NNE
Cosmos 1666 4.5 22:47:18 23° NNE 22:47:18 23° NNE 22:48:55 10° NNE
USA 215 3.7 22:44:53 35° E 22:47:16 51° NNE 22:53:33 10° NW
BREEZE-M DEB (TANK) 4.4 22:32:46 10° SW 22:47:43 58° SSE 22:49:08 47° E
Meteor 1-21 4.2 22:42:42 10° N 22:48:29 87° W 22:49:52 55° S
Tiangong 1 3.4 22:47:03 10° WNW 22:48:23 23° WNW 22:48:23 23° WNW
MetOp-B 4.2 22:49:20 54° S 22:50:33 75° WSW 22:55:56 10° NNW
Cosmos 1802 Rocket 4.2 22:47:44 22° SSW 22:52:05 73° W 22:58:32 10° N
Cosmos 1606 Rocket 3.7 22:54:42 68° W 22:54:43 68° W 22:59:09 10° N
Cosmos 2227 Rocket 4.4 22:52:18 10° NW 22:56:13 20° W 23:00:09 10° SW
SL-08 R/B 4.4 22:55:42 50° S 22:57:30 88° E 23:03:43 10° N
Cosmos 2263 Rocket 3.6 22:53:52 10° N 22:58:16 23° NE 22:58:16 23° NE
RESURS DK-1 3.0 22:54:48 10° NNW 22:58:17 52° WNW 22:58:17 52° WNW
Cosmos 2322 Rocket 3.7 23:03:22 23° NE 23:03:22 23° NE 23:05:37 10° NE
CZ-3C R/B 4.4 22:54:27 10° WSW 23:06:31 17° SW 23:09:52 14° SSW
Cosmos 2360 4.1 23:06:40 82° E 23:06:40 82° E 23:12:18 10° NNE
SL-08 RB Rocket 4.1 23:07:25 61° N 23:07:25 61° N 23:11:17 10° N
Meteor 2-9 Rocket 4.0 23:10:24 87° NNW 23:10:24 87° NNW 23:15:48 10° N
Cosmos 2016 Rocket 4.3 23:07:39 33° SSW 23:10:24 61° W 23:16:33 10° N
Cosmos 1340 4.3 23:07:09 10° NNW 23:09:50 33° WNW 23:09:50 33° WNW
SL-19 R/B 4.3 23:05:43 10° N 23:11:13 72° WNW 23:12:00 61° SW
Cosmos 2297 Rocket 4.2 23:07:52 10° NW 23:11:55 20° W 23:14:38 15° SW
Cosmos 2227 4.2 23:09:36 10° NNW 23:15:22 79° WSW 23:15:22 79° WSW
BREEZE-M DEB (TANK) 4.0 22:58:49 10° WNW 23:17:20 66° NNE 23:18:46 52° ENE
H-2A R/B 2.6 23:19:52 49° NNE 23:19:52 49° NNE 23:23:37 10° N
Terra 2.9 23:23:37 38° NNE 23:23:37 38° NNE 23:26:44 10° N
Cosmos 2098 Rocket 4.5 23:26:49 41° SW 23:29:09 60° W 23:35:10 10° N
GEOS 3 Rocket 4.3 23:26:50 10° NNE 23:30:25 46° NNE 23:30:25 46° NNE
Tsikada Rocket 4.3 23:33:38 10° NNW 23:39:55 58° W 23:40:26 57° WSW
CZ-4B R/B 4.5 23:39:05 10° N 23:43:00 41° NW 23:43:00 41° NW
BREEZE-M DEB (TANK) 3.9 23:41:07 10° W 23:48:16 49° WNW 23:48:16 49° WNW
